Preview of NWS' New Version of Forecast
This preview is not operational and should not be used for support decisions.

Regional Weather Roundup (RWR)

Issued by National Weather Service (NWS)

                            
000
ASUS45 KABQ 181910
RWRNM 
NEW MEXICO REGIONAL WEATHER ROUNDUP
NATIONAL WEATHER SERVICE ALBUQUERQUE NM
100 PM MDT THU APR 18 2019

NOTE: "FAIR" MEANS FEW OR NO CLOUDS BELOW 12,000 FEET AGL WITH NO
       SIGNIFICANT WEATHER OR OBSTRUCTIONS TO VISION.

      THIS PRODUCT IS RELEASED AS TWO VERSIONS.  ONE VERSION NEAR
      THE TOP OF THE HOUR CONTAINING PRELIMINARY DATA FROM ALBUQUERQUE
      AND OTHER STATIONS.  A FINAL VERSION WITH ADDITIONAL DATA IS 
      ISSUED ABOUT 10 MINUTES AFTER THE HOUR.
 
NMZ501-503-504-510>518-182000-
NORTHWEST PLATEAU/NORTHCENTRAL MOUNTAINS
  
CITY           SKY/WX    TMP DP  RH WIND       PRES   REMARKS
FARMINGTON     FAIR      70  19  14 W23G33    30.19F                  
LOS ALAMOS       N/A     57  27  31 SE5G18    30.25F                  
SANTA FE       FAIR      61  29  29 SW13G20   30.22F                  
TAOS           FAIR      60  16  18 NW7G21    30.22F                  
ANGEL FIRE       N/A     51  21  30 NE9       30.24F                  

$$
NMZ402-403-502-505>509-182000-
WESTCENTRAL MOUNTAINS/SOUTHWEST MOUNTAINS
  
CITY           SKY/WX    TMP DP  RH WIND       PRES   REMARKS
GALLUP         FAIR      63  23  21 SW6       30.29F                  
GRANTS         FAIR      62  23  22 N15       30.29F                  
SILVER CITY    FAIR      68  28  22 S10       30.24F                  

$$
NMZ407-409-411-412-182000-
SOUTHERN DESERTS
  
CITY           SKY/WX    TMP DP  RH WIND       PRES   REMARKS
DEMING         FAIR      72  25  17 NE7       30.20F                  
LAS CRUCES     FAIR      69  33  26 CALM      30.21F                  
HOLLOMAN AFB   FAIR      66  42  41 SW5       30.22F                  
ALAMOGORDO     FAIR      64  43  45 E5        30.21F                  
T OR C         FAIR      69  31  24 VRB7      30.22S                  

$$
NMZ519>523-182000-
CENTRAL VALLEYS/CENTRAL HIGHLANDS
  
CITY           SKY/WX    TMP DP  RH WIND       PRES   REMARKS
ALBUQUERQUE    FAIR      61  38  42 CALM      30.23F                  
DOUBLE EAGLE   MOSUNNY   57  34  41 S6        30.25F                  
MORIARTY ARPT  FAIR      59  40  49 S7        30.25F                  
CLINES CORNERS FAIR      56  37  49 W14G24    30.25F                  
BELEN          FAIR      60  36  40 CALM      30.24F                  
SOCORRO        FAIR      64  34  32 NE8       30.23F                  

$$
NMZ524>526-539-540-182000-
SOUTHCENTRAL MOUNTAINS
  
CITY           SKY/WX    TMP DP  RH WIND       PRES   REMARKS
RUIDOSO        FAIR      57  32  38 E6        30.28F                  

$$
NMZ527>531-182000-
NORTHEAST HIGHLANDS/NORTHEAST PLAINS
  
CITY           SKY/WX    TMP DP  RH WIND       PRES   REMARKS
LAS VEGAS      FAIR      56  36  47 S17G25    30.20F                  
RATON          CLOUDY    57  32  38 SW7       30.15F                  
CLAYTON        FAIR      59  30  33 NW14G23   30.13F                  

$$
NMZ532>537-182000-
EASTCENTRAL PLAINS
  
CITY           SKY/WX    TMP DP  RH WIND       PRES   REMARKS
SANTA ROSA     FAIR      62  33  34 W6        30.18F                  
TUCUMCARI      FAIR      64  38  38 MISG      30.13F                  
CANNON AFB     FAIR      62  34  35 N10       30.17F                  
CLOVIS AIRPORT FAIR      61  34  36 N8G21     30.17F                  

$$
NMZ028-029-538-182000-
SOUTHEAST PLAINS
  
CITY           SKY/WX    TMP DP  RH WIND       PRES   REMARKS
ROSWELL        FAIR      69  39  33 VRB6      30.17F                  
ARTESIA        FAIR      66  41  39 VRB5      30.17F                  
CARLSBAD       FAIR      69  40  34 MISG      30.15F                  
HOBBS          MOSUNNY   68  36  30 N8        30.16F                  


$$